AirNav  
 
 335 users online  

MY50 Frontenac Airport
Frontenac, Minnesota, USA

GOING TO FRONTENAC?


FAA INFORMATION EFFECTIVE 09 NOVEMBER 2017

Location

FAA Identifier: MY50
Lat/Long: 44-30-09.8830N / 092-21-40.6540W
44-30.164717N / 092-21.677567W
44.5027453 / -92.3612928
(estimated)
Elevation: 793 ft. / 242 m (estimated)
Variation: 02E (1985)
From city: 1 mile S of FRONTENAC, MN
Time zone: UTC -6 (UTC -5 during Daylight Saving Time)
Zip code: 55041

Airport Operations

Airport use: Private use, PERSONAL USE.
Activation date: 10/1982
Control tower: no
ARTCC: MINNEAPOLIS CENTER
FSS: PRINCETON FLIGHT SERVICE STATION
Attendance: UNATNDD
Wind indicator: yes
Segmented circle: no

Airport Communications

WX AWOS-3 at RGK (7 nm NW): 119.25 (715-594-3763)

Nearby radio navigation aids

VOR radial/distance  VOR name  Freq  Var
FGTr096/35.9FARMINGTON VORTAC115.7006E
ONAr311/38.0WINONA VOR/DME111.4001E

 
NDB name  Hdg/Dist  Freq  Var  ID
REGUE113/13.527402ERG .-. --.
HOPEY129/33.340003EPPI .--. .--. ..

Airport Services

Runway Information

Runway 13/31

Dimensions: 2000 x 60 ft. / 610 x 18 m
Surface: turf
RUNWAY 13  RUNWAY 31
Traffic pattern: leftleft
Obstructions: 15 ft. road, 500 ft. from runway
POWERLINES 1000' FM RWY END.
25 ft. trees, 500 ft. from runway
AND BLDGS.

Airport Ownership and Management from official FAA records

Ownership: Privately-owned
Owner: LARRY GETCHELL
29476 LAKE AVE.
FRONTENAC, MN 55026
Phone 612-345-4882

Airport Operational Statistics

Aircraft based on the field: 1
Single engine airplanes: 1
    

Instrument Procedures

There are no published instrument procedures at MY50.

Some nearby airports with instrument procedures:

KRGK - Red Wing Regional Airport (7 nm NW)
KLUM - Menomonie Municipal Airport-Score Field (31 nm NE)
KTOB - Dodge Center Airport (35 nm SW)
3T3 - Boyceville Municipal Airport (36 nm NE)
KSGS - South St Paul Municipal Airport-Richard E Fleming Field (36 nm NW)
 
Loc | Ops | Rwys | IFR | FBO | Links
Com | Nav | Svcs | Stats | Notes


 
Area around MY50 (Frontenac Airport)
 
Road maps at: MapQuest Bing Google
 
Aerial photo
No photo
 
Sectional chart

 
Airport distance calculator
Flying to Frontenac Airport? Find the distance to fly.

From to MY50

Sunrise and sunset
Times for 25-Nov-2017
 Local
(UTC-6)
 Zulu
(UTC)
Morning civil twilight06:4712:47
Sunrise07:2013:20
Sunset16:3322:33
Evening civil twilight17:0623:06

Current date and time
Zulu (UTC)  25-Nov-2017 08:17:00
Local (UTC-6)  25-Nov-2017 02:17:00
 
METAR
KRGK 
6nm NW 
250755Z AUTO 30005KT 10SM CLR 03/M01 A2978 RMK AO2
TAF
KRST 
37nm S 
250520Z 2506/2606 30015KT P6SM SKC FM252200 29007KT P6SM SKC
KRNH 
40nm N 
250520Z 2506/2606 29009KT P6SM SKC FM260000 VRB03KT P6SM SKC
KMSP 
44nm NW 
250520Z 2506/2612 30008KT P6SM SKC FM260200 15004KT P6SM SKC FM260500 15003KT P6SM FEW250
KEAU 
44nm NE 
250520Z 2506/2606 30009KT P6SM SKC FM260100 VRB03KT P6SM SKC
NOTAMs
Click for the latest NOTAMs
NOTAMs are issued by the DoD/FAA and will open in a separate window not controlled by AirNav.

 

 
 

Would you like to see your business listed on this page?

 If your business provides an interesting product or service to pilots, flight crews, aircraft, or users of the Frontenac Airport, you should consider listing it here.  To start the listing process, click on the button below
 
Add a business
 

Other Pages about Frontenac Airport

Update a link
 
Copyright © AirNav, LLC. All rights reserved. Privacy Policy  Contact